User: anonymous   Login
Location: Belvedere Heights
(33.9836°N, 117.3109°W)
Time: 18:18:45
(UTC+00:00)
Language:

Nadezhda 3 Rocket - Orbit

View from above orbital plane
View from above orbital plane
View from above satellite
View from above satellite

Ground track
Ground track

The orbit data is extracted from the following two-line orbital elements,

1 21153U 91019B   24141.44691494  .00000096  00000-0  83671-4 0  9999
2 21153  82.9225 120.9568 0027676 285.3382 185.8405 13.76183639666491
Epoch (UTC): 20 May 2024 10:43:33
Eccentricity: 0.0027676
inclination: 82.9225°
perigee height: 957 km
apogee height: 998 km
right ascension of ascending node: 120.9568°
argument of perigee: 285.3382°
revolutions per day: 13.76183639
mean anomaly at epoch: 185.8405°
orbit number at epoch: 66649

The dashed part of the orbit path shows where the satellite is in the earth's shadow,  

DLR